Daviess Cnty AP, Washington,, IN

10:45 AM EST on December 13, 2019 (GMT -0500)
Daviess County

Weather History for KDCY - October, 2019

Change the Weather History Date:

Wednesday, October 16, 2019

  Actual Average (WUND) Record (WUND)
Temperature  
Mean Temperature 52 °F -  
Max Temperature 62 °F - - (-1)
Min Temperature 43 °F - - (-1)
Degree Days  
Heating Degree Days 12    
Growing Degree Days 2 (Base 50)    
Moisture  
Dew Point 39 °F    
Average Humidity 67    
Maximum Humidity 99    
Minimum Humidity 56    
Precipitation  
Precipitation 0.02 in - - ()
Sea Level Pressure  
Sea Level Pressure 29.97 in    
Wind  
Wind Speed 12 mph (NW)    
Max Wind Speed 22 mph    
Max Gust Speed 28 mph    
Visibility 10 miles    
Events Rain , Thunderstorm    
Averages and records for this station are not official NWS values.
T = Trace of Precipitation, MM = Missing Value Source: NWS Daily Summary

Daily Weather History Graph

Daily Weather History Graph

Search for Another Location

Airport or City:

Astronomy

Oct. 16, 2019 Rise Set
Actual Time 7:58 AM EDT 7:09 PM EDT
Civil Twilight 7:31 AM EDT 7:35 PM EDT
Nautical Twilight 7:00 AM EDT 8:06 PM EDT
Astronomical Twilight 6:30 AM EDT 8:37 PM EDT
Moon 9:03 PM EDT (10/16) 10:27 AM EDT (10/16)
Length of Visible Light 12h 04m
Length of Day
11h 10m
Waning Gibbous, 93% of the Moon is Illuminated
Oct 16
Waning Gibbous
Oct 21
Last Quarter
Oct 27
New
Nov 4
First Quarter
Nov 12
Full

Hourly Weather History & Observations

Time (EDT) Temp. Windchill Dew Point Humidity Pressure Visibility Wind Dir Wind Speed Gust Speed Precip Events Conditions
12:15 AM 62.8 °F - 62.6 °F 99% 29.82 in 7.0 mi West 8.1 mph - 0.02 in Rain Rain
12:30 AM 62.6 °F - 62.2 °F 99% 29.81 in 10.0 mi West 8.1 mph - 0.02 in   Light Drizzle
12:55 AM 57.4 °F - 47.7 °F 70% 29.84 in 10.0 mi NW 16.1 mph 25.3 mph 0.02 in   Overcast
1:15 AM 56.8 °F - 43.9 °F 62% 29.85 in 10.0 mi NNW 21.9 mph 27.6 mph N/A   Overcast
1:55 AM 55.6 °F - 42.1 °F 60% 29.85 in 10.0 mi NNW 13.8 mph 18.4 mph N/A   Overcast
2:15 AM 55.2 °F - 41.7 °F 60% 29.86 in 10.0 mi NNW 13.8 mph - N/A   Overcast
2:35 AM 55.0 °F - 41.0 °F 59% 29.86 in 10.0 mi NNW 13.8 mph 23.0 mph N/A   Overcast
2:55 AM 54.5 °F - 40.6 °F 60% 29.87 in 10.0 mi NNW 16.1 mph 21.9 mph N/A   Overcast
3:15 AM 53.8 °F - 40.8 °F 62% 29.87 in 10.0 mi NNW 10.4 mph - N/A Thunderstorm Mostly Cloudy
3:35 AM 53.1 °F - 41.0 °F 64% 29.87 in 10.0 mi NNW 10.4 mph - N/A   Mostly Cloudy
3:55 AM 51.8 °F - 41.0 °F 67% 29.87 in 10.0 mi NW 16.1 mph 20.7 mph N/A   Scattered Clouds
4:15 AM 50.9 °F - 40.5 °F 67% 29.88 in 10.0 mi NW 10.4 mph 21.9 mph N/A   Clear
4:35 AM 49.5 °F - 41.0 °F 73% 29.88 in 10.0 mi NW 10.4 mph - N/A   Clear
4:55 AM 48.6 °F - 40.8 °F 75% 29.88 in 10.0 mi NW 12.7 mph 19.6 mph N/A   Clear
5:15 AM 47.7 °F - 40.1 °F 75% 29.89 in 10.0 mi NW 15.0 mph 19.6 mph N/A   Clear
5:35 AM 46.8 °F - 39.9 °F 77% 29.89 in 10.0 mi NW 13.8 mph 19.6 mph N/A   Clear
5:55 AM 46.4 °F 41.1 °F 39.6 °F 77% 29.89 in 10.0 mi NW 11.5 mph - N/A   Clear
6:15 AM 45.5 °F 40.8 °F 39.2 °F 79% 29.90 in 10.0 mi NW 9.2 mph 16.1 mph N/A   Clear
6:35 AM 45.0 °F 40.6 °F 39.2 °F 80% 29.90 in 10.0 mi NW 8.1 mph - N/A   Clear
6:55 AM 44.6 °F 39.7 °F 38.7 °F 80% 29.90 in 10.0 mi WNW 9.2 mph 17.3 mph N/A   Clear
7:15 AM 44.2 °F 38.4 °F 38.3 °F 80% 29.92 in 10.0 mi WNW 11.5 mph 17.3 mph N/A   Clear
7:35 AM 44.1 °F 38.6 °F 38.3 °F 80% 29.92 in 10.0 mi WNW 10.4 mph 18.4 mph N/A   Clear
7:55 AM 43.3 °F 37.7 °F 37.9 °F 81% 29.93 in 10.0 mi WNW 10.4 mph - N/A   Clear
8:15 AM 43.7 °F 37.7 °F 37.9 °F 80% 29.93 in 10.0 mi WNW 11.5 mph - N/A   Clear
8:55 AM 44.4 °F 37.9 °F 38.3 °F 79% 29.93 in 10.0 mi NW 13.8 mph 20.7 mph N/A   Clear
9:15 AM 45.3 °F 39.3 °F 38.3 °F 76% 29.94 in 10.0 mi NW 12.7 mph - N/A   Clear
9:35 AM 46.2 °F 40.5 °F 38.5 °F 74% 29.95 in 10.0 mi NW 12.7 mph 21.9 mph N/A   Scattered Clouds
9:55 AM 47.5 °F - 38.5 °F 71% 29.97 in 10.0 mi NW 15.0 mph 20.7 mph N/A   Clear
10:15 AM 47.7 °F - 37.8 °F 69% 29.97 in 10.0 mi NW 18.4 mph 25.3 mph N/A   Mostly Cloudy
10:35 AM 48.9 °F - 38.1 °F 66% 29.97 in 10.0 mi NW 16.1 mph 20.7 mph N/A   Overcast
10:55 AM 49.1 °F - 37.8 °F 65% 29.98 in 10.0 mi NW 15.0 mph 25.3 mph N/A   Overcast
11:15 AM 49.1 °F - 36.3 °F 61% 29.99 in 10.0 mi NNW 19.6 mph 26.5 mph N/A   Overcast
11:30 AM 49.3 °F - 36.9 °F 62% 30.00 in 10.0 mi NW 15.0 mph 24.2 mph N/A   Overcast
11:55 AM 49.3 °F - 36.5 °F 61% 30.00 in 10.0 mi NNW 17.3 mph 21.9 mph N/A   Overcast
12:15 PM 50.0 °F - 36.9 °F 61% 30.00 in 10.0 mi NW 17.3 mph 24.2 mph N/A   Overcast
12:35 PM 50.0 °F - 36.5 °F 60% 30.00 in 10.0 mi NW 18.4 mph 23.0 mph N/A   Overcast
12:55 PM 50.0 °F - 36.7 °F 60% 30.00 in 10.0 mi NW 15.0 mph 21.9 mph N/A   Overcast
1:15 PM 49.5 °F - 36.7 °F 61% 30.00 in 10.0 mi NW 18.4 mph 23.0 mph N/A   Overcast
1:35 PM 49.8 °F - 36.7 °F 61% 30.00 in 10.0 mi NW 13.8 mph - N/A   Overcast
1:55 PM 50.2 °F - 37.2 °F 61% 30.00 in 10.0 mi NW 10.4 mph 17.3 mph N/A   Overcast
2:15 PM 50.9 °F - 36.5 °F 58% 30.00 in 10.0 mi NW 12.7 mph 24.2 mph N/A   Overcast
2:35 PM 51.1 °F - 37.2 °F 59% 30.00 in 10.0 mi NW 15.0 mph 19.6 mph N/A   Overcast
2:55 PM 50.9 °F - 36.9 °F 59% 30.00 in 10.0 mi NW 13.8 mph 23.0 mph N/A   Overcast
3:15 PM 51.4 °F - 36.9 °F 58% 30.00 in 10.0 mi WNW 11.5 mph - N/A   Overcast
3:35 PM 51.8 °F - 37.0 °F 57% 30.00 in 10.0 mi WNW 13.8 mph 17.3 mph N/A   Overcast
3:55 PM 51.4 °F - 37.4 °F 59% 30.00 in 10.0 mi NW 10.4 mph - N/A   Overcast
4:15 PM 51.4 °F - 36.7 °F 57% 30.01 in 10.0 mi WNW 10.4 mph 20.7 mph N/A   Overcast
4:35 PM 51.8 °F - 37.0 °F 57% 30.02 in 10.0 mi WNW 13.8 mph 20.7 mph N/A   Overcast
4:55 PM 51.6 °F - 36.5 °F 56% 30.02 in 10.0 mi WNW 15.0 mph 19.6 mph N/A   Overcast
5:15 PM 51.3 °F - 36.3 °F 57% 30.03 in 10.0 mi NW 12.7 mph 23.0 mph N/A   Overcast
5:35 PM 50.9 °F - 36.5 °F 58% 30.03 in 10.0 mi NW 11.5 mph - N/A   Overcast
5:55 PM 50.5 °F - 36.5 °F 59% 30.03 in 10.0 mi NW 10.4 mph 16.1 mph N/A   Overcast
6:15 PM 50.4 °F - 35.8 °F 57% 30.03 in 10.0 mi NW 12.7 mph 18.4 mph N/A   Overcast
6:35 PM 50.2 °F - 36.3 °F 59% 30.04 in 10.0 mi NW 12.7 mph 16.1 mph N/A   Overcast
6:55 PM 50.0 °F - 35.8 °F 58% 30.04 in 10.0 mi NW 6.9 mph - N/A   Overcast
7:15 PM 49.8 °F - 36.0 °F 59% 30.05 in 10.0 mi WNW 5.8 mph - N/A   Overcast
7:35 PM 49.3 °F - 36.1 °F 61% 30.05 in 10.0 mi WNW 4.6 mph - N/A   Overcast
7:55 PM 48.9 °F - 36.9 °F 63% 30.05 in 10.0 mi West 4.6 mph - N/A   Overcast
8:15 PM 48.4 °F - 38.1 °F 68% 30.06 in 10.0 mi West 3.5 mph - N/A   Overcast
8:35 PM 48.7 °F - 38.1 °F 67% 30.06 in 10.0 mi West 5.8 mph - N/A   Overcast
8:55 PM 48.7 °F - 37.4 °F 65% 30.06 in 10.0 mi West 5.8 mph - N/A   Mostly Cloudy
9:15 PM 48.0 °F - 37.0 °F 66% 30.06 in 10.0 mi WNW 6.9 mph - N/A   Mostly Cloudy
9:35 PM 47.5 °F - 36.7 °F 66% 30.07 in 10.0 mi West 5.8 mph - N/A   Mostly Cloudy
9:55 PM 47.7 °F - 36.5 °F 65% 30.07 in 10.0 mi West 6.9 mph - N/A   Overcast
10:15 PM 47.8 °F - 36.3 °F 64% 30.07 in 10.0 mi West 3.5 mph - N/A   Overcast
10:35 PM 47.7 °F - 36.1 °F 64% 30.07 in 10.0 mi West 4.6 mph - N/A   Overcast
11:15 PM 46.9 °F - 36.0 °F 66% 30.07 in 10.0 mi WNW 5.8 mph - N/A   Overcast
11:35 PM 46.4 °F 42.9 °F 35.8 °F 67% 30.07 in 10.0 mi NW 6.9 mph - N/A   Mostly Cloudy
11:55 PM 45.1 °F 41.4 °F 35.8 °F 70% 30.06 in 10.0 mi NW 6.9 mph - N/A   Scattered Clouds